owner,sensor,date,latitude,longitude,relative_humidity,qcFlag 
DISL,ioos:station:DISL:CATA:1,2014-05-01T00:00:00Z,30.3085,-88.1395,45.54,1111122 
DISL,ioos:station:DISL:CATA:1,2014-05-01T00:30:00Z,30.3085,-88.1395,48.56,1111122 
DISL,ioos:station:DISL:CATA:1,2014-05-01T01:00:00Z,30.3085,-88.1395,50.17,1111122 
DISL,ioos:station:DISL:CATA:1,2014-05-01T01:30:00Z,30.3085,-88.1395,44.17,1111122 
DISL,ioos:station:DISL:CATA:1,2014-05-01T02:00:00Z,30.3085,-88.1395,44.41,1111122 
DISL,ioos:station:DISL:CATA:1,2014-05-01T02:30:00Z,30.3085,-88.1395,50.45,1111122 
DISL,ioos:station:DISL:CATA:1,2014-05-01T03:00:00Z,30.3085,-88.1395,60.18,1111122 
DISL,ioos:station:DISL:CATA:1,2014-05-01T03:30:00Z,30.3085,-88.1395,60.14,1111122 
DISL,ioos:station:DISL:CATA:1,2014-05-01T04:00:00Z,30.3085,-88.1395,54.9,1111122 
DISL,ioos:station:DISL:CATA:1,2014-05-01T04:30:00Z,30.3085,-88.1395,64.67,1111122 
DISL,ioos:station:DISL:CATA:1,2014-05-01T05:00:00Z,30.3085,-88.1395,66.64,1111122 
DISL,ioos:station:DISL:CATA:1,2014-05-01T05:30:00Z,30.3085,-88.1395,62.8,1111122 
DISL,ioos:station:DISL:CATA:1,2014-05-01T06:30:00Z,30.3085,-88.1395,72.03,1111122 
DISL,ioos:station:DISL:CATA:1,2014-05-01T07:00:00Z,30.3085,-88.1395,77.68,1111122 
DISL,ioos:station:DISL:CATA:1,2014-05-01T07:30:00Z,30.3085,-88.1395,71.27,1111122 
DISL,ioos:station:DISL:CATA:1,2014-05-01T08:00:00Z,30.3085,-88.1395,72.61,1111122 
DISL,ioos:station:DISL:CATA:1,2014-05-01T08:30:00Z,30.3085,-88.1395,70.69,1111122 
DISL,ioos:station:DISL:CATA:1,2014-05-01T09:00:00Z,30.3085,-88.1395,65.72,1111122 
DISL,ioos:station:DISL:CATA:1,2014-05-01T09:30:00Z,30.3085,-88.1395,68.33,1111122 
DISL,ioos:station:DISL:CATA:1,2014-05-01T10:00:00Z,30.3085,-88.1395,67.11,1111122 
DISL,ioos:station:DISL:CATA:1,2014-05-01T10:30:00Z,30.3085,-88.1395,65.63,1111122 
DISL,ioos:station:DISL:CATA:1,2014-05-01T11:00:00Z,30.3085,-88.1395,69.0,1111122 
DISL,ioos:station:DISL:CATA:1,2014-05-01T11:30:00Z,30.3085,-88.1395,71.12,1111122 
DISL,ioos:station:DISL:CATA:1,2014-05-01T12:00:00Z,30.3085,-88.1395,67.8,1111122 
DISL,ioos:station:DISL:CATA:1,2014-05-01T12:30:00Z,30.3085,-88.1395,67.87,1111122 
DISL,ioos:station:DISL:CATA:1,2014-05-01T13:00:00Z,30.3085,-88.1395,63.34,1111122 
DISL,ioos:station:DISL:CATA:1,2014-05-01T13:30:00Z,30.3085,-88.1395,63.41,1111122 
DISL,ioos:station:DISL:CATA:1,2014-05-01T14:00:00Z,30.3085,-88.1395,63.17,1111122 
DISL,ioos:station:DISL:CATA:1,2014-05-01T14:30:00Z,30.3085,-88.1395,60.12,1111122 
DISL,ioos:station:DISL:CATA:1,2014-05-01T15:00:00Z,30.3085,-88.1395,61.03,1111122 
DISL,ioos:station:DISL:CATA:1,2014-05-01T15:30:00Z,30.3085,-88.1395,56.09,1111122 
DISL,ioos:station:DISL:CATA:1,2014-05-01T16:00:00Z,30.3085,-88.1395,57.22,1111122 
DISL,ioos:station:DISL:CATA:1,2014-05-01T16:30:00Z,30.3085,-88.1395,58.42,1111122 
DISL,ioos:station:DISL:CATA:1,2014-05-01T17:00:00Z,30.3085,-88.1395,59.17,1111122 
DISL,ioos:station:DISL:CATA:1,2014-05-01T17:30:00Z,30.3085,-88.1395,56.53,1111122 
DISL,ioos:station:DISL:CATA:1,2014-05-01T18:00:00Z,30.3085,-88.1395,55.67,1111122 
DISL,ioos:station:DISL:CATA:1,2014-05-01T18:30:00Z,30.3085,-88.1395,57.45,1111122 
DISL,ioos:station:DISL:CATA:1,2014-05-01T19:00:00Z,30.3085,-88.1395,53.51,1111122 
DISL,ioos:station:DISL:CATA:1,2014-05-01T19:30:00Z,30.3085,-88.1395,60.83,1111122 
DISL,ioos:station:DISL:CATA:1,2014-05-01T20:00:00Z,30.3085,-88.1395,48.53,1111122 
DISL,ioos:station:DISL:CATA:1,2014-05-01T20:30:00Z,30.3085,-88.1395,53.46,1111122 
DISL,ioos:station:DISL:CATA:1,2014-05-01T21:00:00Z,30.3085,-88.1395,49.69,1111122 
DISL,ioos:station:DISL:CATA:1,2014-05-01T21:30:00Z,30.3085,-88.1395,48.53,1111122 
DISL,ioos:station:DISL:CATA:1,2014-05-01T22:00:00Z,30.3085,-88.1395,45.65,1111122 
DISL,ioos:station:DISL:CATA:1,2014-05-01T22:30:00Z,30.3085,-88.1395,46.4,1111122 
DISL,ioos:station:DISL:CATA:1,2014-05-01T23:00:00Z,30.3085,-88.1395,61.14,1111122 
DISL,ioos:station:DISL:CATA:1,2014-05-01T23:30:00Z,30.3085,-88.1395,57.0,1111122 
DISL,ioos:station:DISL:CATA:1,2014-05-02T00:00:00Z,30.3085,-88.1395,57.93,1111122 
DISL,ioos:station:DISL:CATA:1,2014-05-02T00:30:00Z,30.3085,-88.1395,59.24,1111122 
DISL,ioos:station:DISL:CATA:1,2014-05-02T01:00:00Z,30.3085,-88.1395,62.56,1111122 
DISL,ioos:station:DISL:CATA:1,2014-05-02T01:30:00Z,30.3085,-88.1395,65.2,1111122 
DISL,ioos:station:DISL:CATA:1,2014-05-02T02:00:00Z,30.3085,-88.1395,63.59,1111122 
DISL,ioos:station:DISL:CATA:1,2014-05-02T02:30:00Z,30.3085,-88.1395,67.16,1111122 
DISL,ioos:station:DISL:CATA:1,2014-05-02T03:00:00Z,30.3085,-88.1395,65.68,1111122 
DISL,ioos:station:DISL:CATA:1,2014-05-02T03:30:00Z,30.3085,-88.1395,60.33,1111122 
DISL,ioos:station:DISL:CATA:1,2014-05-02T04:00:00Z,30.3085,-88.1395,62.94,1111122 
DISL,ioos:station:DISL:CATA:1,2014-05-02T04:30:00Z,30.3085,-88.1395,64.52,1111122 
DISL,ioos:station:DISL:CATA:1,2014-05-02T05:00:00Z,30.3085,-88.1395,63.39,1111122 
DISL,ioos:station:DISL:CATA:1,2014-05-02T05:30:00Z,30.3085,-88.1395,62.5,1111122 
DISL,ioos:station:DISL:CATA:1,2014-05-02T06:30:00Z,30.3085,-88.1395,72.88,1111122 
DISL,ioos:station:DISL:CATA:1,2014-05-02T07:00:00Z,30.3085,-88.1395,73.12,1111122 
DISL,ioos:station:DISL:CATA:1,2014-05-02T07:30:00Z,30.3085,-88.1395,72.16,1111122 
DISL,ioos:station:DISL:CATA:1,2014-05-02T08:00:00Z,30.3085,-88.1395,69.8,1111122 
DISL,ioos:station:DISL:CATA:1,2014-05-02T08:30:00Z,30.3085,-88.1395,66.75,1111122 
DISL,ioos:station:DISL:CATA:1,2014-05-02T09:00:00Z,30.3085,-88.1395,69.21,1111122 
DISL,ioos:station:DISL:CATA:1,2014-05-02T09:30:00Z,30.3085,-88.1395,73.33,1111122 
DISL,ioos:station:DISL:CATA:1,2014-05-02T10:00:00Z,30.3085,-88.1395,71.79,1111122 
DISL,ioos:station:DISL:CATA:1,2014-05-02T10:30:00Z,30.3085,-88.1395,77.07,1111122 
DISL,ioos:station:DISL:CATA:1,2014-05-02T11:00:00Z,30.3085,-88.1395,75.59,1111122 
DISL,ioos:station:DISL:CATA:1,2014-05-02T11:30:00Z,30.3085,-88.1395,69.15,1111122 
DISL,ioos:station:DISL:CATA:1,2014-05-02T12:00:00Z,30.3085,-88.1395,70.07,1111122 
DISL,ioos:station:DISL:CATA:1,2014-05-02T12:30:00Z,30.3085,-88.1395,55.54,1111122 
DISL,ioos:station:DISL:CATA:1,2014-05-02T13:00:00Z,30.3085,-88.1395,61.95,1111122 
DISL,ioos:station:DISL:CATA:1,2014-05-02T13:30:00Z,30.3085,-88.1395,58.07,1111122 
DISL,ioos:station:DISL:CATA:1,2014-05-02T14:00:00Z,30.3085,-88.1395,61.48,1111122 
DISL,ioos:station:DISL:CATA:1,2014-05-02T14:30:00Z,30.3085,-88.1395,62.92,1111122 
DISL,ioos:station:DISL:CATA:1,2014-05-02T15:00:00Z,30.3085,-88.1395,57.44,1111122 
DISL,ioos:station:DISL:CATA:1,2014-05-02T15:30:00Z,30.3085,-88.1395,54.73,1111122 
DISL,ioos:station:DISL:CATA:1,2014-05-02T16:00:00Z,30.3085,-88.1395,58.26,1111122 
DISL,ioos:station:DISL:CATA:1,2014-05-02T16:30:00Z,30.3085,-88.1395,53.63,1111122 
DISL,ioos:station:DISL:CATA:1,2014-05-02T17:00:00Z,30.3085,-88.1395,53.12,1111122 
DISL,ioos:station:DISL:CATA:1,2014-05-02T17:30:00Z,30.3085,-88.1395,49.18,1111122 
DISL,ioos:station:DISL:CATA:1,2014-05-02T18:00:00Z,30.3085,-88.1395,46.5,1111122 
DISL,ioos:station:DISL:CATA:1,2014-05-02T18:30:00Z,30.3085,-88.1395,40.2,1111122 
DISL,ioos:station:DISL:CATA:1,2014-05-02T19:00:00Z,30.3085,-88.1395,38.21,1111122 
DISL,ioos:station:DISL:CATA:1,2014-05-02T19:30:00Z,30.3085,-88.1395,45.74,1111122 
DISL,ioos:station:DISL:CATA:1,2014-05-02T20:00:00Z,30.3085,-88.1395,47.77,1111122 
DISL,ioos:station:DISL:CATA:1,2014-05-02T20:30:00Z,30.3085,-88.1395,47.88,1111122 
DISL,ioos:station:DISL:CATA:1,2014-05-02T21:00:00Z,30.3085,-88.1395,50.89,1111122 
DISL,ioos:station:DISL:CATA:1,2014-05-02T21:30:00Z,30.3085,-88.1395,52.98,1111122 
DISL,ioos:station:DISL:CATA:1,2014-05-02T22:00:00Z,30.3085,-88.1395,58.64,1111122 
DISL,ioos:station:DISL:CATA:1,2014-05-02T22:30:00Z,30.3085,-88.1395,57.37,1111122 
DISL,ioos:station:DISL:CATA:1,2014-05-02T23:00:00Z,30.3085,-88.1395,57.64,1111122 
DISL,ioos:station:DISL:CATA:1,2014-05-02T23:30:00Z,30.3085,-88.1395,59.42,1111122 
DISL,ioos:station:DISL:CATA:1,2014-05-03T00:00:00Z,30.3085,-88.1395,55.49,1111122 
DISL,ioos:station:DISL:CATA:1,2014-05-03T00:30:00Z,30.3085,-88.1395,58.19,1111122 
DISL,ioos:station:DISL:CATA:1,2014-05-03T01:00:00Z,30.3085,-88.1395,50.59,1111122 
DISL,ioos:station:DISL:CATA:1,2014-05-03T01:30:00Z,30.3085,-88.1395,57.03,1111122 
DISL,ioos:station:DISL:CATA:1,2014-05-03T02:00:00Z,30.3085,-88.1395,54.46,1111122 
DISL,ioos:station:DISL:CATA:1,2014-05-03T02:30:00Z,30.3085,-88.1395,52.61,1111122 
DISL,ioos:station:DISL:CATA:1,2014-05-03T03:00:00Z,30.3085,-88.1395,63.09,1111122 
DISL,ioos:station:DISL:CATA:1,2014-05-03T03:30:00Z,30.3085,-88.1395,57.03,1111122 
DISL,ioos:station:DISL:CATA:1,2014-05-03T04:00:00Z,30.3085,-88.1395,59.98,1111122 
DISL,ioos:station:DISL:CATA:1,2014-05-03T04:30:00Z,30.3085,-88.1395,62.59,1111122 
DISL,ioos:station:DISL:CATA:1,2014-05-03T05:00:00Z,30.3085,-88.1395,61.84,1111122 
DISL,ioos:station:DISL:CATA:1,2014-05-03T05:30:00Z,30.3085,-88.1395,60.2,1111122 
DISL,ioos:station:DISL:CATA:1,2014-05-03T06:30:00Z,30.3085,-88.1395,67.53,1111122 
DISL,ioos:station:DISL:CATA:1,2014-05-03T07:00:00Z,30.3085,-88.1395,63.63,1111122 
DISL,ioos:station:DISL:CATA:1,2014-05-03T07:30:00Z,30.3085,-88.1395,61.36,1111122 
DISL,ioos:station:DISL:CATA:1,2014-05-03T08:00:00Z,30.3085,-88.1395,57.18,1111122 
DISL,ioos:station:DISL:CATA:1,2014-05-03T08:30:00Z,30.3085,-88.1395,58.9,1111122 
DISL,ioos:station:DISL:CATA:1,2014-05-03T09:00:00Z,30.3085,-88.1395,63.52,1111122 
DISL,ioos:station:DISL:CATA:1,2014-05-03T09:30:00Z,30.3085,-88.1395,61.91,1111122 
DISL,ioos:station:DISL:CATA:1,2014-05-03T10:00:00Z,30.3085,-88.1395,68.5,1111122 
DISL,ioos:station:DISL:CATA:1,2014-05-03T10:30:00Z,30.3085,-88.1395,63.46,1111122 
DISL,ioos:station:DISL:CATA:1,2014-05-03T11:00:00Z,30.3085,-88.1395,60.2,1111122 
DISL,ioos:station:DISL:CATA:1,2014-05-03T11:30:00Z,30.3085,-88.1395,62.74,1111122 
DISL,ioos:station:DISL:CATA:1,2014-05-03T12:00:00Z,30.3085,-88.1395,59.17,1111122 
DISL,ioos:station:DISL:CATA:1,2014-05-03T12:30:00Z,30.3085,-88.1395,61.36,1111122 
DISL,ioos:station:DISL:CATA:1,2014-05-03T13:00:00Z,30.3085,-88.1395,59.82,1111122 
DISL,ioos:station:DISL:CATA:1,2014-05-03T13:30:00Z,30.3085,-88.1395,46.62,1111122 
DISL,ioos:station:DISL:CATA:1,2014-05-03T14:00:00Z,30.3085,-88.1395,48.49,1111122 
DISL,ioos:station:DISL:CATA:1,2014-05-03T14:30:00Z,30.3085,-88.1395,45.68,1111122 
DISL,ioos:station:DISL:CATA:1,2014-05-03T15:00:00Z,30.3085,-88.1395,47.09,1111122 
DISL,ioos:station:DISL:CATA:1,2014-05-03T15:30:00Z,30.3085,-88.1395,52.71,1111122 
DISL,ioos:station:DISL:CATA:1,2014-05-03T16:00:00Z,30.3085,-88.1395,43.66,1111122 
DISL,ioos:station:DISL:CATA:1,2014-05-03T16:30:00Z,30.3085,-88.1395,50.41,1111122 
DISL,ioos:station:DISL:CATA:1,2014-05-03T17:00:00Z,30.3085,-88.1395,49.07,1111122 
DISL,ioos:station:DISL:CATA:1,2014-05-03T17:30:00Z,30.3085,-88.1395,44.79,1111122 
DISL,ioos:station:DISL:CATA:1,2014-05-03T18:00:00Z,30.3085,-88.1395,50.37,1111122 
DISL,ioos:station:DISL:CATA:1,2014-05-03T18:30:00Z,30.3085,-88.1395,41.5,1111122 
DISL,ioos:station:DISL:CATA:1,2014-05-03T19:00:00Z,30.3085,-88.1395,45.81,1111122 
DISL,ioos:station:DISL:CATA:1,2014-05-03T19:30:00Z,30.3085,-88.1395,46.57,1111122 
DISL,ioos:station:DISL:CATA:1,2014-05-03T20:00:00Z,30.3085,-88.1395,48.08,1111122 
DISL,ioos:station:DISL:CATA:1,2014-05-03T20:30:00Z,30.3085,-88.1395,48.04,1111122 
DISL,ioos:station:DISL:CATA:1,2014-05-03T21:00:00Z,30.3085,-88.1395,55.58,1111122 
DISL,ioos:station:DISL:CATA:1,2014-05-03T21:30:00Z,30.3085,-88.1395,54.21,1111122 
DISL,ioos:station:DISL:CATA:1,2014-05-03T22:00:00Z,30.3085,-88.1395,53.01,1111122 
DISL,ioos:station:DISL:CATA:1,2014-05-03T22:30:00Z,30.3085,-88.1395,55.59,1111122 
DISL,ioos:station:DISL:CATA:1,2014-05-03T23:00:00Z,30.3085,-88.1395,53.8,1111122 
DISL,ioos:station:DISL:CATA:1,2014-05-03T23:30:00Z,30.3085,-88.1395,57.16,1111122 
DISL,ioos:station:DISL:CATA:1,2014-05-04T00:00:00Z,30.3085,-88.1395,49.07,1111122 
DISL,ioos:station:DISL:CATA:1,2014-05-04T00:30:00Z,30.3085,-88.1395,59.42,1111122 
DISL,ioos:station:DISL:CATA:1,2014-05-04T01:00:00Z,30.3085,-88.1395,69.43,1111122 
DISL,ioos:station:DISL:CATA:1,2014-05-04T01:30:00Z,30.3085,-88.1395,63.54,1111122 
DISL,ioos:station:DISL:CATA:1,2014-05-04T02:00:00Z,30.3085,-88.1395,65.63,1111122 
DISL,ioos:station:DISL:CATA:1,2014-05-04T02:30:00Z,30.3085,-88.1395,64.94,1111122 
DISL,ioos:station:DISL:CATA:1,2014-05-04T03:00:00Z,30.3085,-88.1395,64.29,1111122 
DISL,ioos:station:DISL:CATA:1,2014-05-04T03:30:00Z,30.3085,-88.1395,68.81,1111122 
DISL,ioos:station:DISL:CATA:1,2014-05-04T04:00:00Z,30.3085,-88.1395,72.21,1111122 
DISL,ioos:station:DISL:CATA:1,2014-05-04T04:30:00Z,30.3085,-88.1395,74.13,1111122 
DISL,ioos:station:DISL:CATA:1,2014-05-04T05:00:00Z,30.3085,-88.1395,75.43,1111122 
DISL,ioos:station:DISL:CATA:1,2014-05-04T05:30:00Z,30.3085,-88.1395,75.87,1111122 
DISL,ioos:station:DISL:CATA:1,2014-05-04T06:30:00Z,30.3085,-88.1395,80.7,1111122 
DISL,ioos:station:DISL:CATA:1,2014-05-04T07:00:00Z,30.3085,-88.1395,74.23,1111122 
DISL,ioos:station:DISL:CATA:1,2014-05-04T07:30:00Z,30.3085,-88.1395,77.79,1111122 
DISL,ioos:station:DISL:CATA:1,2014-05-04T08:00:00Z,30.3085,-88.1395,71.76,1111122 
DISL,ioos:station:DISL:CATA:1,2014-05-04T08:30:00Z,30.3085,-88.1395,76.01,1111122 
DISL,ioos:station:DISL:CATA:1,2014-05-04T09:00:00Z,30.3085,-88.1395,72.0,1111122 
DISL,ioos:station:DISL:CATA:1,2014-05-04T09:30:00Z,30.3085,-88.1395,74.92,1111122 
DISL,ioos:station:DISL:CATA:1,2014-05-04T10:00:00Z,30.3085,-88.1395,75.48,1111122 
DISL,ioos:station:DISL:CATA:1,2014-05-04T10:30:00Z,30.3085,-88.1395,73.84,1111122 
DISL,ioos:station:DISL:CATA:1,2014-05-04T11:00:00Z,30.3085,-88.1395,74.22,1111122 
DISL,ioos:station:DISL:CATA:1,2014-05-04T11:30:00Z,30.3085,-88.1395,72.81,1111122 
DISL,ioos:station:DISL:CATA:1,2014-05-04T12:00:00Z,30.3085,-88.1395,73.88,1111122 
DISL,ioos:station:DISL:CATA:1,2014-05-04T12:30:00Z,30.3085,-88.1395,74.45,1111122 
DISL,ioos:station:DISL:CATA:1,2014-05-04T13:00:00Z,30.3085,-88.1395,72.0,1111122 
DISL,ioos:station:DISL:CATA:1,2014-05-04T13:30:00Z,30.3085,-88.1395,73.03,1111122 
DISL,ioos:station:DISL:CATA:1,2014-05-04T14:00:00Z,30.3085,-88.1395,71.73,1111122 
DISL,ioos:station:DISL:CATA:1,2014-05-04T14:30:00Z,30.3085,-88.1395,74.43,1111122 
DISL,ioos:station:DISL:CATA:1,2014-05-04T15:00:00Z,30.3085,-88.1395,73.2,1111122 
DISL,ioos:station:DISL:CATA:1,2014-05-04T15:30:00Z,30.3085,-88.1395,73.3,1111122 
DISL,ioos:station:DISL:CATA:1,2014-05-04T16:00:00Z,30.3085,-88.1395,74.05,1111122 
DISL,ioos:station:DISL:CATA:1,2014-05-04T16:30:00Z,30.3085,-88.1395,73.46,1111122 
DISL,ioos:station:DISL:CATA:1,2014-05-04T17:00:00Z,30.3085,-88.1395,72.4,1111122 
DISL,ioos:station:DISL:CATA:1,2014-05-04T17:30:00Z,30.3085,-88.1395,69.76,1111122 
DISL,ioos:station:DISL:CATA:1,2014-05-04T18:00:00Z,30.3085,-88.1395,71.71,1111122 
DISL,ioos:station:DISL:CATA:1,2014-05-04T18:30:00Z,30.3085,-88.1395,74.69,1111122 
DISL,ioos:station:DISL:CATA:1,2014-05-04T19:00:00Z,30.3085,-88.1395,74.04,1111122 
DISL,ioos:station:DISL:CATA:1,2014-05-04T19:30:00Z,30.3085,-88.1395,74.97,1111122 
DISL,ioos:station:DISL:CATA:1,2014-05-04T20:00:00Z,30.3085,-88.1395,75.48,1111122 
DISL,ioos:station:DISL:CATA:1,2014-05-04T20:30:00Z,30.3085,-88.1395,71.82,1111122 
DISL,ioos:station:DISL:CATA:1,2014-05-04T21:00:00Z,30.3085,-88.1395,73.53,1111122 
DISL,ioos:station:DISL:CATA:1,2014-05-04T21:30:00Z,30.3085,-88.1395,72.06,1111122 
DISL,ioos:station:DISL:CATA:1,2014-05-04T22:00:00Z,30.3085,-88.1395,70.45,1111122 
DISL,ioos:station:DISL:CATA:1,2014-05-04T22:30:00Z,30.3085,-88.1395,74.56,1111122 
DISL,ioos:station:DISL:CATA:1,2014-05-04T23:00:00Z,30.3085,-88.1395,75.21,1111122 
DISL,ioos:station:DISL:CATA:1,2014-05-04T23:30:00Z,30.3085,-88.1395,72.06,1111122 
DISL,ioos:station:DISL:CATA:1,2014-05-05T00:00:00Z,30.3085,-88.1395,75.84,1111122 
DISL,ioos:station:DISL:CATA:1,2014-05-05T00:30:00Z,30.3085,-88.1395,72.86,1111122 
DISL,ioos:station:DISL:CATA:1,2014-05-05T01:00:00Z,30.3085,-88.1395,73.99,1111122 
DISL,ioos:station:DISL:CATA:1,2014-05-05T01:30:00Z,30.3085,-88.1395,73.58,1111122 
DISL,ioos:station:DISL:CATA:1,2014-05-05T02:00:00Z,30.3085,-88.1395,75.12,1111122 
DISL,ioos:station:DISL:CATA:1,2014-05-05T02:30:00Z,30.3085,-88.1395,77.18,1111122 
DISL,ioos:station:DISL:CATA:1,2014-05-05T03:00:00Z,30.3085,-88.1395,76.01,1111122 
DISL,ioos:station:DISL:CATA:1,2014-05-05T03:30:00Z,30.3085,-88.1395,80.5,1111122 
DISL,ioos:station:DISL:CATA:1,2014-05-05T04:00:00Z,30.3085,-88.1395,79.06,1111122 
DISL,ioos:station:DISL:CATA:1,2014-05-05T04:30:00Z,30.3085,-88.1395,79.13,1111122 
DISL,ioos:station:DISL:CATA:1,2014-05-05T05:00:00Z,30.3085,-88.1395,80.4,1111122 
DISL,ioos:station:DISL:CATA:1,2014-05-05T05:30:00Z,30.3085,-88.1395,81.3,1111122 
DISL,ioos:station:DISL:CATA:1,2014-05-05T06:30:00Z,30.3085,-88.1395,75.29,1111122 
DISL,ioos:station:DISL:CATA:1,2014-05-05T07:00:00Z,30.3085,-88.1395,77.86,1111122 
DISL,ioos:station:DISL:CATA:1,2014-05-05T07:30:00Z,30.3085,-88.1395,77.24,1111122 
DISL,ioos:station:DISL:CATA:1,2014-05-05T08:00:00Z,30.3085,-88.1395,75.46,1111122 
DISL,ioos:station:DISL:CATA:1,2014-05-05T08:30:00Z,30.3085,-88.1395,73.34,1111122 
DISL,ioos:station:DISL:CATA:1,2014-05-05T09:00:00Z,30.3085,-88.1395,76.08,1111122 
DISL,ioos:station:DISL:CATA:1,2014-05-05T09:30:00Z,30.3085,-88.1395,80.4,1111122 
DISL,ioos:station:DISL:CATA:1,2014-05-05T10:00:00Z,30.3085,-88.1395,75.74,1111122 
DISL,ioos:station:DISL:CATA:1,2014-05-05T10:30:00Z,30.3085,-88.1395,74.4,1111122 
DISL,ioos:station:DISL:CATA:1,2014-05-05T11:00:00Z,30.3085,-88.1395,74.09,1111122 
DISL,ioos:station:DISL:CATA:1,2014-05-05T11:30:00Z,30.3085,-88.1395,75.53,1111122 
DISL,ioos:station:DISL:CATA:1,2014-05-05T12:00:00Z,30.3085,-88.1395,72.14,1111122 
DISL,ioos:station:DISL:CATA:1,2014-05-05T12:30:00Z,30.3085,-88.1395,71.52,1111122 
DISL,ioos:station:DISL:CATA:1,2014-05-05T13:00:00Z,30.3085,-88.1395,68.51,1111122 
DISL,ioos:station:DISL:CATA:1,2014-05-05T13:30:00Z,30.3085,-88.1395,64.63,1111122 
DISL,ioos:station:DISL:CATA:1,2014-05-05T14:00:00Z,30.3085,-88.1395,56.37,1111122 
DISL,ioos:station:DISL:CATA:1,2014-05-05T14:30:00Z,30.3085,-88.1395,64.14,1111122 
DISL,ioos:station:DISL:CATA:1,2014-05-05T15:00:00Z,30.3085,-88.1395,60.71,1111122 
DISL,ioos:station:DISL:CATA:1,2014-05-05T15:30:00Z,30.3085,-88.1395,57.93,1111122 
DISL,ioos:station:DISL:CATA:1,2014-05-05T16:00:00Z,30.3085,-88.1395,60.05,1111122 
DISL,ioos:station:DISL:CATA:1,2014-05-05T16:30:00Z,30.3085,-88.1395,62.52,1111122 
DISL,ioos:station:DISL:CATA:1,2014-05-05T17:00:00Z,30.3085,-88.1395,62.66,1111122 
DISL,ioos:station:DISL:CATA:1,2014-05-05T17:30:00Z,30.3085,-88.1395,62.56,1111122 
DISL,ioos:station:DISL:CATA:1,2014-05-05T18:00:00Z,30.3085,-88.1395,57.35,1111122 
DISL,ioos:station:DISL:CATA:1,2014-05-05T18:30:00Z,30.3085,-88.1395,60.71,1111122 
DISL,ioos:station:DISL:CATA:1,2014-05-05T19:00:00Z,30.3085,-88.1395,54.09,1111122 
DISL,ioos:station:DISL:CATA:1,2014-05-05T19:30:00Z,30.3085,-88.1395,50.19,1111122 
DISL,ioos:station:DISL:CATA:1,2014-05-05T20:00:00Z,30.3085,-88.1395,46.69,1111122 
DISL,ioos:station:DISL:CATA:1,2014-05-05T20:30:00Z,30.3085,-88.1395,51.76,1111122 
DISL,ioos:station:DISL:CATA:1,2014-05-05T21:00:00Z,30.3085,-88.1395,48.54,1111122 
DISL,ioos:station:DISL:CATA:1,2014-05-05T21:30:00Z,30.3085,-88.1395,48.17,1111122 
DISL,ioos:station:DISL:CATA:1,2014-05-05T22:00:00Z,30.3085,-88.1395,46.63,1111122 
DISL,ioos:station:DISL:CATA:1,2014-05-05T22:30:00Z,30.3085,-88.1395,45.22,1111122 
DISL,ioos:station:DISL:CATA:1,2014-05-05T23:00:00Z,30.3085,-88.1395,47.35,1111122 
DISL,ioos:station:DISL:CATA:1,2014-05-05T23:30:00Z,30.3085,-88.1395,51.29,1111122 
DISL,ioos:station:DISL:CATA:1,2014-05-06T00:00:00Z,30.3085,-88.1395,53.7,1111122 
DISL,ioos:station:DISL:CATA:1,2014-05-06T00:30:00Z,30.3085,-88.1395,56.51,1111122 
DISL,ioos:station:DISL:CATA:1,2014-05-06T01:00:00Z,30.3085,-88.1395,54.76,1111122 
DISL,ioos:station:DISL:CATA:1,2014-05-06T01:30:00Z,30.3085,-88.1395,56.55,1111122 
DISL,ioos:station:DISL:CATA:1,2014-05-06T02:00:00Z,30.3085,-88.1395,55.59,1111122 
DISL,ioos:station:DISL:CATA:1,2014-05-06T02:30:00Z,30.3085,-88.1395,57.88,1111122 
DISL,ioos:station:DISL:CATA:1,2014-05-06T03:00:00Z,30.3085,-88.1395,56.13,1111122 
DISL,ioos:station:DISL:CATA:1,2014-05-06T03:30:00Z,30.3085,-88.1395,57.75,1111122 
DISL,ioos:station:DISL:CATA:1,2014-05-06T04:00:00Z,30.3085,-88.1395,56.72,1111122 
DISL,ioos:station:DISL:CATA:1,2014-05-06T04:30:00Z,30.3085,-88.1395,54.76,1111122 
DISL,ioos:station:DISL:CATA:1,2014-05-06T05:00:00Z,30.3085,-88.1395,57.03,1111122 
DISL,ioos:station:DISL:CATA:1,2014-05-06T05:30:00Z,30.3085,-88.1395,56.1,1111122 
DISL,ioos:station:DISL:CATA:1,2014-05-06T06:30:00Z,30.3085,-88.1395,70.22,1111122 
DISL,ioos:station:DISL:CATA:1,2014-05-06T07:00:00Z,30.3085,-88.1395,67.99,1111122 
DISL,ioos:station:DISL:CATA:1,2014-05-06T07:30:00Z,30.3085,-88.1395,72.38,1111122 
DISL,ioos:station:DISL:CATA:1,2014-05-06T08:00:00Z,30.3085,-88.1395,68.85,1111122 
DISL,ioos:station:DISL:CATA:1,2014-05-06T08:30:00Z,30.3085,-88.1395,69.71,1111122 
DISL,ioos:station:DISL:CATA:1,2014-05-06T09:00:00Z,30.3085,-88.1395,66.93,1111122 
DISL,ioos:station:DISL:CATA:1,2014-05-06T09:30:00Z,30.3085,-88.1395,70.97,1111122 
DISL,ioos:station:DISL:CATA:1,2014-05-06T10:00:00Z,30.3085,-88.1395,65.59,1111122 
DISL,ioos:station:DISL:CATA:1,2014-05-06T10:30:00Z,30.3085,-88.1395,62.58,1111122 
DISL,ioos:station:DISL:CATA:1,2014-05-06T11:00:00Z,30.3085,-88.1395,70.05,1111122 
DISL,ioos:station:DISL:CATA:1,2014-05-06T11:30:00Z,30.3085,-88.1395,67.03,1111122 
DISL,ioos:station:DISL:CATA:1,2014-05-06T12:00:00Z,30.3085,-88.1395,66.69,1111122 
DISL,ioos:station:DISL:CATA:1,2014-05-06T12:30:00Z,30.3085,-88.1395,65.04,1111122 
DISL,ioos:station:DISL:CATA:1,2014-05-06T13:00:00Z,30.3085,-88.1395,68.61,1111122 
DISL,ioos:station:DISL:CATA:1,2014-05-06T13:30:00Z,30.3085,-88.1395,66.52,1111122 
DISL,ioos:station:DISL:CATA:1,2014-05-06T14:00:00Z,30.3085,-88.1395,65.76,1111122 
DISL,ioos:station:DISL:CATA:1,2014-05-06T14:30:00Z,30.3085,-88.1395,66.13,1111122 
DISL,ioos:station:DISL:CATA:1,2014-05-06T15:00:00Z,30.3085,-88.1395,64.96,1111122 
DISL,ioos:station:DISL:CATA:1,2014-05-06T15:30:00Z,30.3085,-88.1395,65.95,1111122 
DISL,ioos:station:DISL:CATA:1,2014-05-06T16:00:00Z,30.3085,-88.1395,64.48,1111122 
DISL,ioos:station:DISL:CATA:1,2014-05-06T16:30:00Z,30.3085,-88.1395,62.8,1111122 
DISL,ioos:station:DISL:CATA:1,2014-05-06T17:00:00Z,30.3085,-88.1395,61.39,1111122 
DISL,ioos:station:DISL:CATA:1,2014-05-06T17:30:00Z,30.3085,-88.1395,56.7,1111122 
DISL,ioos:station:DISL:CATA:1,2014-05-06T18:00:00Z,30.3085,-88.1395,54.85,1111122 
DISL,ioos:station:DISL:CATA:1,2014-05-06T18:30:00Z,30.3085,-88.1395,56.77,1111122 
DISL,ioos:station:DISL:CATA:1,2014-05-06T19:00:00Z,30.3085,-88.1395,55.77,1111122 
DISL,ioos:station:DISL:CATA:1,2014-05-06T19:30:00Z,30.3085,-88.1395,56.8,1111122 
DISL,ioos:station:DISL:CATA:1,2014-05-06T20:00:00Z,30.3085,-88.1395,55.7,1111122 
DISL,ioos:station:DISL:CATA:1,2014-05-06T20:30:00Z,30.3085,-88.1395,52.93,1111122 
DISL,ioos:station:DISL:CATA:1,2014-05-06T21:00:00Z,30.3085,-88.1395,55.22,1111122 
DISL,ioos:station:DISL:CATA:1,2014-05-06T21:30:00Z,30.3085,-88.1395,58.51,1111122 
DISL,ioos:station:DISL:CATA:1,2014-05-06T22:00:00Z,30.3085,-88.1395,55.64,1111122 
DISL,ioos:station:DISL:CATA:1,2014-05-06T22:30:00Z,30.3085,-88.1395,59.47,1111122 
DISL,ioos:station:DISL:CATA:1,2014-05-06T23:00:00Z,30.3085,-88.1395,56.53,1111122 
DISL,ioos:station:DISL:CATA:1,2014-05-06T23:30:00Z,30.3085,-88.1395,57.46,1111122 
DISL,ioos:station:DISL:CATA:1,2014-05-07T00:00:00Z,30.3085,-88.1395,59.31,1111122 
DISL,ioos:station:DISL:CATA:1,2014-05-07T00:30:00Z,30.3085,-88.1395,60.96,1111122 
DISL,ioos:station:DISL:CATA:1,2014-05-07T01:00:00Z,30.3085,-88.1395,60.45,1111122 
DISL,ioos:station:DISL:CATA:1,2014-05-07T01:30:00Z,30.3085,-88.1395,62.1,1111122 
DISL,ioos:station:DISL:CATA:1,2014-05-07T02:00:00Z,30.3085,-88.1395,62.92,1111122 
DISL,ioos:station:DISL:CATA:1,2014-05-07T02:30:00Z,30.3085,-88.1395,66.0,1111122 